Location: Krasnoyarskiy
(51.1133°N, 71.6497°E)
Time: 15:24:25
(UTC+00:00)

COSMO-SKYMED 1 - Visible Passes

Search period start: 21 March 2023 00:00
Search period end: 31 March 2023 00:00
Orbit: 621 x 623 km, 97.9° (Epoch: 21 March)

Date Brightness Start Highest point End Pass type
(mag) Time Alt. Az. Time Alt. Az. Time Alt. Az.
21 Mar 5.6 14:54:38 10° NNW 14:57:42 19° WNW 15:00:46 10° WSW visible
21 Mar 5.8 22:43:38 10° E 22:46:02 15° NE 22:48:26 10° NNE visible
22 Mar 2.6 00:17:14 10° SSE 00:21:35 87° WSW 00:25:58 10° NNW visible
22 Mar 5.9 15:13:16 10° NNW 15:15:30 14° NW 15:17:45 10° W visible
22 Mar 5.4 23:00:41 10° ESE 23:03:51 20° ENE 23:07:01 10° NNE visible
23 Mar 2.6 00:35:21 10° S 00:39:38 59° W 00:43:57 10° NNW visible
23 Mar 6.3 15:33:02 10° NW 15:33:16 10° NW 15:33:30 10° NW visible
23 Mar 4.8 23:18:02 10° ESE 23:21:42 27° ENE 23:25:23 10° N visible
24 Mar 4.1 14:11:50 10° N 14:15:56 41° WNW 14:20:01 10° SW visible
24 Mar 4.2 23:35:35 10° SE 23:39:36 38° ENE 23:43:39 10° N visible
25 Mar 4.9 14:30:04 10° N 14:33:50 29° WNW 14:37:35 10° SW visible
25 Mar 3.4 23:53:18 10° SSE 23:57:33 56° ENE 00:01:49 10° N visible
26 Mar 5.5 14:48:25 10° NNW 14:51:42 21° WNW 14:54:58 10° WSW visible
26 Mar 6.0 22:38:00 10° E 22:40:02 13° NE 22:42:05 10° NNE visible
27 Mar 2.7 00:11:11 10° SSE 00:15:31 82° ENE 00:19:54 10° NNW visible
27 Mar 5.8 15:06:56 10° NNW 15:09:31 16° WNW 15:12:04 10° W visible
27 Mar 5.6 22:54:54 10° ESE 22:57:51 18° ENE 23:00:47 10° NNE visible
28 Mar 6.1 15:25:57 10° NW 15:27:17 11° NW 15:28:37 10° WNW visible
28 Mar 5.1 23:12:09 10° ESE 23:15:40 25° ENE 23:19:12 10° N visible
29 Mar 3.9 14:05:41 10° N 14:09:52 46° WNW 14:14:02 10° SW visible
29 Mar 4.5 23:29:37 10° SE 23:33:33 34° ENE 23:37:29 10° N visible
30 Mar 4.7 14:23:53 10° N 14:27:47 33° WNW 14:31:39 10° SW visible
30 Mar 3.7 23:47:16 10° SE 23:51:28 49° ENE 23:55:40 10° N visible
